International Virtual Aviation Organisation

Eastern Europe and Northern Asia MCD

 

Карточка аэропорта UATG

Внимание!
Информация на этой странице в стадии наполнения.
Если вы не увидели какой-то информации, или заметили неточность - пожалуйста сообщите нам!
Спасибо!
Команда RU-STAFF
Название аэропортаАтырау
Название аэропорта (англ.)Atyrau
Превышение-72 ft. (-21.9 m.)
Координаты47°7.332', 51°49.764'
Высота перехода1570
Эшелон переходаFL40
Коды ответчика3450-3457, 3560-3567
Зона ОрВДАктобе РПИ (UATT)
Данные METARUATG 121130Z 10008MPS CAVOK 25/M09 Q1026 R14/CLRD70 NOSIG RMK QFE771/1028
Проноз погоды (TAF)UATG 121100Z 1212/1312 10012MPS 9999 SCT033 TX26/1311Z TN13/1301Z TEMPO 1212/1216 3100 BLDU BECMG 1216/1217 08007MPS
NOTAMshow/hide NOTAM
AWOS   TABLE

Информация о ВПП

ВПП Длина ВПП (м.) Покрытие Курс ВПП Частота ILS
323000Асфальтобетон329108.3
143000Асфальтобетон149109.9

Диспетчерские позиции

Позывной Наименование органа УВД Частота
UATG_APPАтырау Подход123.7
UATG_TWRАтырау Вышка118.1



Спутниковое изображение